This demonstration page uses our WeatherBlox Daily Observations layout. Learn more.

Left ArrowRight Arrow

38.20091, -84.87328

Hourly Observations for January 18, 2016

Temp ( °F °C ) Dew Point ( °F °C ) Humidity (%) Winds ( mph kmh ) Pressure ( in mb ) Visibility ( mi km ) Precip ( " mm )
12:53 am 00:53 Clear 9 -12.8 -2 -18.9 61 61 WNW 6 9 30.24 1024 10 16 0.00 0.00
1:53 am 01:53 Clear 8 -13.3 -2 -18.9 63 63 WNW 8 13 30.24 1024 10 16 0.00 0.00
2:41 am 02:41 Mostly Cloudy 8 -13.3 -2 -18.9 63 63 WNW 7 11 30.30 1026 10 16 0.00 0.00
2:53 am 02:53 Mostly Cloudy 8 -13.3 -2 -18.9 63 63 WNW 6 9 30.26 1025 10 16 0.00 0.00
3:53 am 03:53 Cloudy 8 -13.3 -2 -18.9 63 63 W 6 9 30.27 1025 10 16 0.00 0.00
4:38 am 04:38 Partly Cloudy 6 -14.4 -3 -19.4 66 66 W 5 7 30.33 1027 10 16 0.00 0.00
4:45 am 04:45 Mostly Cloudy 6 -14.4 -3 -19.4 66 66 W 7 11 30.33 1027 10 16 0.00 0.00
4:53 am 04:53 Mostly Cloudy 6 -14.4 -3 -19.4 66 66 W 8 13 30.28 1025 10 16 0.00 0.00
5:20 am 05:20 Partly Cloudy 6 -14.4 -3 -19.4 66 66 W 6 9 30.33 1027 10 16 0.00 0.00
5:53 am 05:53 Clear 6 -14.4 -3 -19.4 66 66 W 3 6 30.29 1026 10 16 0.00 0.00
6:53 am 06:53 Clear 5 -15 -3 -19.4 69 69 W 6 9 30.32 1027 10 16 0.00 0.00
7:53 am 07:53 Clear 5 -15 -3 -19.4 69 69 W 7 11 30.33 1027 10 16 0.00 0.00
8:53 am 08:53 Sunny 7 -13.9 -2 -18.9 66 66 WNW 8 13 30.35 1028 10 16 0.00 0.00
9:53 am 09:53 Mostly Cloudy 9 -12.8 -3 -19.4 58 58 W 12 19 30.37 1029 10 16 0.00 0.00
10:09 am 10:09 Partly Cloudy 9 -12.8 -3 -19.4 58 58 W 8 13 30.42 1030 10 16 0.00 0.00
10:53 am 10:53 Sunny 11 -11.7 -3 -19.4 53 53 W 12 19 30.38 1029 10 16 0.00 0.00
11:53 am 11:53 Sunny 12 -11.1 -4 -20 48 48 WNW 9 15 30.37 1029 10 16 0.00 0.00
12:53 pm 12:53 Sunny 15 -9.4 -4 -20 42 42 W 13 20 30.35 1028 10 16 0.00 0.00
1:53 pm 13:53 Sunny 15 -9.4 -4 -20 42 42 W 9 15 30.33 1027 10 16 0.00 0.00
2:53 pm 14:53 Sunny 17 -8.3 -4 -20 39 39 W 8 13 30.32 1027 10 16 0.00 0.00
3:53 pm 15:53 Sunny 18 -7.8 -3 -19.4 39 39 W 8 13 30.33 1027 10 16 0.00 0.00
4:53 pm 16:53 Sunny 17 -8.3 -3 -19.4 41 41 W 9 15 30.33 1027 10 16 0.00 0.00
5:53 pm 17:53 Clear 15 -9.4 -2 -18.9 46 46 W 5 7 30.34 1027 10 16 0.00 0.00
6:53 pm 18:53 Clear 14 -10 -1 -18.3 51 51 W 5 7 30.35 1028 10 16 0.00 0.00
7:53 pm 19:53 Clear 14 -10 -1 -18.3 51 51 WNW 7 11 30.37 1028 10 16 0.00 0.00
8:53 pm 20:53 Clear 13 -10.6 -1 -18.3 54 54 W 5 7 30.38 1029 10 16 0.00 0.00
9:53 pm 21:53 Clear 11 -11.7 0 -17.8 61 61 WNW 3 6 30.39 1029 10 16 0.00 0.00
10:53 pm 22:53 Clear 11 -11.7 0 -17.8 61 61 WNW 6 9 30.40 1030 10 16 0.00 0.00
11:53 pm 23:53 Partly Cloudy 10 -12.2 1 -17.2 67 67 WNW 5 7 30.40 1030 10 16 0.00 0.00

Powered by AerisWeather